Location: Medoc Mountain State Park
(36.2578°N, 77.8786°W)
Time: 15:39:37
(UTC-04:00)

Daily predictions for brighter satellites

Satellite Brightness Start Highest point End
(mag) Time Altitude Azimuth Time Altitude Azimuth Time Altitude Azimuth
Envisat 4.0 20:15:41 10° SE 20:19:57 28° ENE 20:24:13 10° NNE
FengYun 1-2 T 4.3 20:14:49 10° SSE 20:20:28 87° ENE 20:26:10 10° NNW
Cosmos 1536 4.3 20:18:32 10° SE 20:21:25 19° E 20:24:19 10° NE
Lacrosse 5 rocket 1.1 20:19:16 10° NW 20:22:57 77° NE 20:26:49 10° SE
Cosmos 1655 Rocket 4.0 20:26:15 10° S 20:32:29 76° E 20:38:49 10° N
Cosmos 44 3.1 20:30:35 10° NNW 20:35:03 87° WSW 20:39:43 10° SSE
CZ-4C R/B 4.4 20:28:24 10° NW 20:35:11 38° WSW 20:42:26 10° S
Okean 2 Rocket 3.7 20:31:40 10° SSW 20:36:06 63° W 20:40:36 10° N
CZ-2D R/B 3.2 20:32:34 10° SSE 20:36:23 67° ENE 20:40:14 10° N
ATLAS 2AS CENTAUR R/B 3.2 20:30:01 10° S 20:37:12 50° ESE 20:44:53 10° NE
Meteor 2-4 Rocket 4.4 20:32:34 10° N 20:37:39 35° ENE 20:42:49 10° SE
BREEZE-M DEB (TANK) 2.5 20:41:05 10° WSW 20:43:36 70° NNW 20:49:25 10° NE
Meteor 1-13 Rocket 4.4 20:40:27 10° N 20:46:22 61° E 20:52:12 10° SSE
H-2A R/B 4.1 20:43:23 10° S 20:46:59 40° W 20:50:34 10° NNW
BREEZE-M DEB (TANK) 3.5 20:44:07 10° NW 20:47:30 76° NE 20:59:03 14° SE
NOSS 2-3 (E) 3.7 20:43:30 10° SSW 20:48:05 83° ESE 20:53:18 10° NNE
Delta 2 Rocket 3.6 20:44:37 10° WSW 20:48:24 49° SSE 20:51:53 15° E
Cosmos 2227 4.5 20:47:48 10° NNW 20:53:25 71° WSW 20:59:03 10° SSE
Resurs 1-3 3.6 20:50:24 10° SSE 20:54:46 88° E 20:59:11 10° NNW
USA 186 1.8 20:51:38 10° SSE 20:54:59 83° ENE 20:58:22 10° N
Helios 1B rocket 3.5 20:52:32 10° NE 20:55:54 24° E 20:57:36 19° SE
Lacrosse 5 1.8 20:51:27 10° SW 20:56:31 77° SE 21:01:35 10° NE
Cosmos 1850 Rocket 4.1 20:55:53 10° N 21:01:10 59° ENE 21:05:14 17° SSE
Atlas Centaur 2 3.3 20:55:44 10° W 21:03:51 53° S 21:08:53 20° ESE
SeaSat 1 2.4 21:04:30 10° NNE 21:09:28 84° ESE 21:14:23 10° SSW
Cosmos 1607 4.3 21:08:19 10° NNW 21:14:38 53° ENE 21:18:19 25° ESE
Okean 1 Rocket 3.0 21:11:42 10° S 21:15:58 61° E 21:20:17 10° NNE
Cosmos 1300 Rocket 3.5 21:12:36 10° S 21:16:54 83° W 21:21:13 10° N
Cosmos 220 Rocket 4.4 21:15:05 10° N 21:19:12 43° ENE 21:20:29 33° ESE
Cosmos 2263 Rocket 2.2 21:14:58 10° NNW 21:20:40 70° ENE 21:23:58 26° SE
Cosmos 2322 Rocket 3.2 21:16:15 10° SW 21:21:45 49° WNW 21:27:17 10° N
Cosmos 1025 Rocket 3.6 21:18:40 10° N 21:22:37 36° E 21:23:14 34° E
Meteor 1-11 Rocket 4.3 21:17:15 10° SSW 21:23:02 61° W 21:28:43 10° N
YAOGAN 6 2.5 21:22:13 43° SE 21:23:07 59° ENE 21:26:35 10° N
SJ-11-01 4.2 21:21:00 21° SSE 21:24:08 83° ENE 21:28:49 10° N
Okean 2 4.2 21:21:01 10° NNE 21:24:41 31° ENE 21:24:45 31° E
GPS 2-05 Rocket1 2.8 21:22:55 10° W 21:26:14 56° SSW 21:26:33 53° SSE
Tiangong 1 1.4 21:24:05 10° NW 21:26:46 44° NNE 21:26:47 44° NNE
Cosmos 1844 Rocket 4.3 21:23:35 10° NNE 21:27:17 17° NE 21:28:30 16° ENE
Cosmos 2237 4.5 21:22:44 10° S 21:28:03 43° ESE 21:33:24 10° NE
Cosmos 2266 Rocket 3.9 21:23:52 10° S 21:29:55 84° W 21:35:59 10° N
Resurs 01 Rocket 3.3 21:26:52 10° SSW 21:30:51 32° W 21:34:51 10° NW
Okean 1-7 Rocket 3.9 21:27:55 10° N 21:32:16 46° E 21:32:58 42° ESE
SL-16 R/B 3.7 21:28:45 10° SW 21:34:00 39° WNW 21:39:17 10° N
USA 238 DEB 4.5 21:30:34 10° NNW 21:37:09 39° NE 21:39:58 29° E
USA 238 4.5 21:30:40 10° NNW 21:37:15 39° NE 21:40:03 28° E
Cosmos 2219 Rocket 4.1 21:42:46 13° ENE 21:42:46 13° ENE 21:43:42 10° NE
Cosmos 2315 Rocket 4.0 21:34:19 10° N 21:40:33 65° E 21:43:24 33° SSE
Nadezhda 2 Rocket 4.4 21:37:26 17° S 21:42:13 71° E 21:48:25 10° N
Helios 1A 2.9 21:41:23 46° SSE 21:42:38 89° W 21:46:54 10° NNW
Meteor 1-23 Rocket 4.2 21:38:18 10° N 21:43:53 83° W 21:47:03 27° S
Cosmos 2322 3.6 21:39:32 10° SSW 21:45:10 82° ESE 21:50:52 10° NNE
ERS-1 Rocket 3.1 21:46:40 49° ESE 21:47:32 56° ENE 21:52:27 10° N
Cosmos 1500 4.1 21:52:07 37° NE 21:52:07 37° NE 21:54:40 10° NNE
ATLAS 3B R/B 2.8 21:45:34 10° NNW 21:52:06 53° NE 21:53:55 41° E
Cosmos 2360 Rocket 2.5 21:48:44 10° SSW 21:54:20 67° WNW 21:59:57 10° NNE
Meteor 1-29 3.4 21:51:10 10° N 21:54:01 57° NNW 21:54:01 57° NNW
OAO 1 Rocket 4.3 21:50:10 10° W 21:55:31 79° S 21:56:29 60° ESE
Cosmos 1939 Rocket 4.3 21:53:53 20° SSW 21:55:58 33° W 21:59:33 10° NNW
COSMOS 2428 2.8 21:55:48 52° ESE 21:56:05 53° ESE 22:01:39 10° NNE
Cosmos 1932 4.5 21:55:58 10° NNW 22:02:27 80° WSW 22:04:25 47° SSE
H-2A R/B 2.7 22:08:23 38° NE 22:08:23 38° NE 22:12:21 10° N
Cosmos 2333 Rocket 4.1 22:13:04 16° NE 22:13:04 16° NE 22:14:20 10° NE
Cosmos 1892 Rocket 4.4 22:07:16 10° N 22:10:26 42° NNE 22:10:26 42° NNE
NOAA 11 4.3 22:12:03 52° S 22:13:22 74° WSW 22:18:53 10° NNW
Cosmos 1238 Rocket 3.9 22:08:14 10° N 22:14:56 72° E 22:15:42 64° SE
Cosmos 2333 4.0 22:16:47 73° E 22:16:47 73° E 22:22:10 10° NNE
Cosmos 1302 Rocket 4.0 22:19:33 60° SW 22:20:30 78° WNW 22:25:49 10° NNE
MetOp-A 4.2 22:24:43 67° SW 22:25:09 71° WSW 22:30:31 10° NNW
Cosmos 1486 Rocket 4.2 22:21:40 10° NNW 22:26:11 61° NNE 22:26:11 61° NNE
ATLAS 2AS CENTAUR R/B 4.4 22:21:21 10° WSW 22:28:26 38° NW 22:35:53 10° NNE
Aureole 3 Rocket 3.9 22:21:26 10° N 22:29:32 87° E 22:30:15 73° SSE
SPOT 5 3.3 22:33:36 55° N 22:33:36 55° N 22:37:16 10° NNW
BREEZE M DEB (TANK) 3.6 22:27:00 10° WSW 22:33:38 42° NW 22:33:39 42° NW
Cosmos 1455 Rocket 4.5 22:37:04 33° N 22:37:04 33° N 22:39:35 10° N
Intelsat 5-1 Rocket 4.4 22:20:02 10° WSW 22:35:43 39° SSW 22:36:17 38° S
NOSS 3-4 (A) 4.4 22:41:26 36° NE 22:41:26 36° NE 22:45:05 10° NE
NOSS 3-4 (C) 4.4 22:41:37 35° NE 22:41:37 35° NE 22:45:11 10° NE
Lacrosse 5 4.4 22:36:16 10° W 22:39:59 20° NNW 22:43:42 10° NNE
Cosmos 1066 Rocket 4.3 22:36:21 10° NNW 22:41:15 70° NW 22:41:15 70° NW
Centaur D AC-29 4.3 22:41:10 10° SW 22:43:39 14° SSW 22:43:39 14° SSW
ARGOS 3.7 22:49:54 51° W 22:49:54 51° W 22:54:50 10° NNW
Atlas Centaur 2 4.0 22:46:16 10° W 22:51:30 28° SW 22:51:30 28° SW
Nadezhda 1 Rocket 4.1 22:47:36 10° N 22:53:08 68° NNE 22:53:08 68° NNE
Cosmos 2278 Rocket 3.5 23:03:10 10° N 23:06:39 33° NNE 23:06:39 33° NNE
Cosmos 1844 Rocket 3.5 23:06:02 10° NNW 23:10:10 47° NW 23:10:10 47° NW
Terra 3.7 23:16:55 26° N 23:16:55 26° N 23:19:00 10° N
Cosmos 2219 Rocket 3.4 23:24:26 39° NNW 23:24:26 39° NNW 23:28:32 10° N
NOSS 3-2 (A) 4.1 23:18:36 10° NNW 23:25:38 76° WNW 23:25:38 76° WNW
ATLAS 3B R/B 4.2 23:37:08 10° WNW 23:41:11 24° W 23:41:11 24° W
H-2A R/B 4.4 23:49:01 17° WNW 23:49:01 17° WNW 23:50:53 10° NW
Cosmos 2333 Rocket 4.0 23:55:01 28° NNW 23:55:01 28° NNW 23:58:35 10° N
